www.pogodaiklimat.ru

Погода и климат >> Архив погоды >> Россия >> Псковская область >> Пушкинские Горы


АРХИВ ПОГОДЫ в Пушкинских Горах

Время (UTC), дата Ветер
(напр.,м/с)
 
Видим.   Явления Облачность Т
(С)
Тd
(С)
f
(%)
Тe
(С)
Тes
(С)
Комфортность P
(гПа)
Po
(гПа)
Тmin
(С)
Tmax
(С)
R
(мм)
R24
(мм)
S
(см)
06 10.09 ЮЗ 2 20 км 9/6 600 м
[Cb cap Ac trans]
+17.6 +13.6 77 +18 +19 1023.4 1011.0 +16.6
09 10.09 ЮВ 3 20 км 8/4 600 м
[Cu med, cong Ci fib]
+22.2 +14.7 62 +26 +29 душно 1023.5 1011.4
12 10.09 ЮВ 4 20 км 8/0
[Ci fib]
+25.0 +14.2 51 +27 +31 жарко 1022.8 1010.8
15 10.09 В 2 20 км 9/0
[Ac trans Ci fib]
+22.7 +13.6 56 +26 +26 жарко 1022.1 1010.0
18 10.09 ЮВ 4 20 км 8/4 600 м
[Cb cap Ci fib]
+20.1 +13.7 67 +22 +22 комфорт 1022.5 1010.3 +25.3
21 10.09 ЮВ 3 20 км 3/0
[Ac trans]
+18.6 +13.3 71 +19 +19 1022.7 1010.4
00 11.09 ЮВ 2 20 км 4/0
[Ci fib]
+16.3 +12.7 79 +16 +16 1022.8 1010.4
03 11.09 Ю 2 20 км 9/9 600 м
[Cb cap]
+15.2 +12.4 83 +15 +15 1023.6 1011.1 +15.1
06 11.09 Ю 1 10 км 9/6 600 м
[Sc Ac trans]
+15.1 +12.7 86 +16 +16 1024.0 1011.5 +14.7
09 11.09 ЮЗ 3 20 км 3/1 1000 м
[Cu hum Ac cuf Ci fib]
+19.8 +11.5 59 +22 +26 комфорт 1023.9 1011.6
12 11.09 ЮЗ 5 20 км 6/6 600 м
[Cu med, cong]
+21.4 +9.5 47 +23 +24 комфорт 1023.5 1011.3
15 11.09 ЮЗ 2 20 км 3/1 1000 м
[Cu hum Ci fib]
+20.2 +9.6 50 +22 +23 комфорт 1023.4 1011.1
18 11.09 Ю 2 20 км 6/3 600 м
[Cu med, cong Ac cuf Ci fib]
+14.8 +9.7 71 +15 +15 1024.1 1011.6 +21.7
21 11.09 Ю 2 20 км 6/0
[Ci fib]
+14.1 +9.7 75 +14 +14 1024.3 1011.8
00 12.09 ЮВ 1 20 км 1/0
[Ac lent]
+11.8 +9.2 84 +12 +12 1024.5 1011.9
03 12.09 ЮВ 2 20 км 3/0
[Ac lent Ci fib]
+10.5 +8.8 89 +9 +9 1024.5 1011.8 +10.4
06 12.09 Ю 2 20 км 9/0
[Ac trans]
+13.7 +9.6 76 +13 +14 1023.7 1011.2 +10.3
09 12.09 ЮЗ 2 20 км 9/0
[Cc]
+19.9 +11.9 60 +22 +28 комфорт 1022.5 1010.3
12 12.09 ЮЗ 4 20 км 9/8 1000 м
[Cb cap Ac trans Ci fib]
+20.4 +10.0 51 +22 +23 комфорт 1021.5 1009.3
15 12.09 ЮЗ 2 20 км 9/3 1000 м
[Cu med, cong Ac trans Ci fib]
+19.8 +11.4 58 +22 +22 комфорт 1020.5 1008.3
18 12.09 З 3 20 км 9/9 600 м
[Cb cap]
+17.2 +11.2 68 +17 +17 1020.8 1008.5 +22.4
21 12.09 ЮЗ 2 20 км 9/0
[Cc]
+14.7 +11.5 81 +14 +14 1021.3 1008.8
00 13.09 ЮЗ 1 20 км 9/0
[Cc]
+11.8 +10.8 94 +12 +12 1021.0 1008.4
03 13.09 Ю 2 20 км 9/0
[Ci fib]
+10.9 +10.3 96 +9 +9 1020.1 1007.5 +10.8
06 13.09 ЮЗ 3 20 км 9/8 600 м
[Cb cap Ci fib]
+12.6 +11.5 93 +11 +11 1019.2 1006.7 +10.5
09 13.09 ЮЗ 4 20 км 10/10 300 м
[Cb cap]
+15.5 +12.1 80 +15 +15 1017.7 1005.3
12 13.09 З 4 10 км слаб. ливневой дождь 10/10 300 м
[Cb cap]
+14.9 +12.4 85 +14 +14 1015.8 1003.4
15 13.09 ЮЗ 4 4000 м слаб. ливневой дождь 10/10 300 м
[Cb cap]
+13.4 +12.8 96 +12 +12 1012.7 1000.3 2
18 13.09 З 3 20 км в посл. час ливневой дождь 10/10 300 м
[Cb cap]
+11.5 +11.2 98 +10 +10 1011.7 999.2 +16.4 13
21 13.09 З 4 20 км 6/6 600 м
[Cb cap]
+10.6 +9.5 93 +8 +8 1012.9 1000.4
00 14.09 З 3
{11}
20 км 8/8 600 м
[Cb cap]
+9.4 +8.4 93 +7 +7 1016.0 1003.4
03 14.09 З 2 20 км 3/3 600 м
[Cb cap]
+7.7 +7.3 97 +5 +5 1018.0 1005.3 +7.7 11
06 14.09 З 3 20 км 1/1 600 м
[Cb cap]
+10.1 +7.2 82 +8 +9 1018.6 1006.0 +7.5
09 14.09 З 4 20 км 5/3 600 м
[Cb cap Ac trans]
+15.1 +7.9 62 +14 +17 1018.9 1006.5
12 14.09 З 3
{12}
20 км {ливн. осадки} 9/3 600 м
[Cb cap Cc]
+12.0 +6.1 67 +11 +13 1019.3 1006.7
15 14.09 З 2 20 км 8/3 600 м
[Cb cap Ac trans Ci fib]
+11.1 +5.3 67 +10 +10 1019.4 1006.8 13
18 14.09 З 2 20 км 6/1 600 м
[Cb cap Ci fib]
+7.6 +6.0 90 +5 +5 1020.1 1007.3 +16.1 1
21 14.09 З 2 20 км 1/0
[Ci fib]
+7.8 +6.1 89 +6 +6 1019.8 1007.0
00 15.09 ЮЗ 1 20 км 3/0
[Ci fib]
+5.5 +5.2 98 +4 +4 1019.4 1006.5
03 15.09 Ю 1 20 км 9/0
[Cc]
+4.8 +4.6 99 +3 +3 1018.2 1005.3 +4.4
06 15.09 Ю 2 20 км 10/10 300 м
[St]
+7.2 +6.7 97 +5 +5 1015.3 1002.6 +4.4
09 15.09 Ю 3 10 км слаб. дождь 10/10 200 м
[Frnb Ns]
+9.1 +8.6 97 +6 +6 1011.2 998.6
12 15.09 ЮЗ 6-12
{14}
10 км слаб. ливневой дождь 10/10 300 м
[Cb cap]
+10.1 +8.9 92 +7 +7 1006.6 994.1
15 15.09 ЮЗ 5-12
{12}
20 км в посл. час ливневой дождь 10/10 300 м
[Cb cap]
+10.3 +8.5 89 +7 +7 1002.2 989.8 10
18 15.09 ЮЗ 5-11
{14}
10 км слаб. ливневой дождь 10/10 300 м
[Cb cap]
+11.0 +8.3 83 +8 +8 999.9 987.5 +11.4 10
21 15.09 З 3
{11}
20 км {ливн. осадки} 8/4 600 м
[Cb cap Ac cuf]
+10.3 +9.0 92 +8 +8 998.9 986.5
00 16.09 ЮЗ 3
{11}
20 км {ливн. осадки} 8/3 600 м
[Cb cap Ci fib]
+10.2 +8.9 92 +8 +8 998.0 985.6
03 16.09 З 5 10 км {ливн. осадки} 10/10 300 м
[Cb cap]
+9.9 +8.7 92 +7 +7 997.4 985.0 +9.5 4
06 16.09 З 5
{10}
20 км {ливн. осадки} 9/9 300 м
[Cb cap]
+10.5 +7.9 84 +8 +8 997.0 984.6 +9.5 4
09 16.09 З 5 20 км в посл. час ливневой дождь 9/9 300 м
[Cb cap]
+11.8 +9.7 87 +9 +10 997.0 984.7
12 16.09 З 5
{14}
20 км {ливн. осадки} 8/8 600 м
[Cb cap]
+13.1 +9.9 81 +11 +12 997.0 984.8
15 16.09 З 6-11
{14}
20 км {ливн. осадки} 3/3 600 м
[Cb cap]
+12.8 +6.8 67 +10 +11 997.6 985.3 6
18 16.09 З 4
{14}
20 км {ливн. осадки} 3/3 600 м
[Cb cap]
+10.0 +7.3 83 +7 +7 999.0 986.5 +14.3 6
21 16.09 З 4 20 км в посл. час ливневой дождь 10/10 300 м
[Cb cap]
+8.8 +8.0 95 +6 +6 998.8 986.2
00 17.09 З 3 20 км {ливн. осадки} 9/9 300 м
[Cb cap]
+8.6 +7.1 90 +6 +6 998.3 985.7

 

Местоположение метеостанции Пушкинские Горы (Псковская область, Россия): широта 57.02 долгота 28.90 высота над уровнем моря 108 м.

В архиве по умолчанию представлена погода в Пушкинских Горах за последнюю неделю. Архивные данные за месяц целиком и за предыдущие месяцы, начиная с января 2011 года, Вы можете получить, выбрав интересующий диапазон дат из раскрывающегося списка и нажав кнопку "Ввод!".


*Определитесь, кто Вы:
робот инопланетянин человек

Внимание! Время в таблицах - всемирное. Для получения местного времени необходимо прибавить поправку, которая равна 3 ч.

Смотрите также архив погоды в соседних городах и на ближайших метеорологических станциях:

Погода в Опочке (Псковская область, Россия) (35 км)
Погода в Сущево (Псковская область, Россия) (61 км)
Погода в Пскове (Псковская область, Россия) (95 км)
Погода в Дно (Псковская область, Россия) (109 км)
Погода в Резекне (Латвия) (113 км)
Погода в Алуксне (Латвия) (121 км)
Погода в Великих Луках (Псковская область, Россия) (129 км)
Погода в Гулбене (Латвия) (132 км)
Погода в Холме (Новгородская область, Россия) (139 км)
Погода в Стругах-Красных (Псковская область, Россия) (140 км)

Пояснения к столбцам:

Ветер - указаны скорость ветра в м/с - средняя за 10 мин, порывы в срок и между сроками (в фигурных скобках) и направление, откуда дует ветер: С - северный, СВ - северо-восточный, В - восточный, ЮВ - юго-восточный, Ю - южный, ЮЗ - юго-западный, З - западный, СЗ - северо-западный.
Видимость - горизонтальная дальность видимости в метрах или километрах. При видимости от 1 до 10 км при отсутствии осадков обычно наблюдается дымка, при ухудшении видимости до 1 км и менее - туман. В сухую погоду видимость может ухудшаться дымом, пылью или мглою.
Явления - указаны атмосферные явления, наблюдавшиеся в срок или в последний час перед сроком; фигурными скобками обозначены явления, наблюдавшиеся между сроками (за 1-3 часа до срока); квадратными скобками обозначены град или гололедные отложения с указанием их диаметра в мм.
Облачность - указаны через наклонную черту общая и нижняя облачность в баллах и высота нижней границы облаков в метрах; квадратными скобками обозначены формы облаков: Ci - перистые, Cs - перисто-слоистые, Cc - перисто-кучевые, Ac - высококучевые, As - высокослоистые, Sc - слоисто-кучевые, Ns - слоисто-дождевые, Cu - кучевые, Cb - кучево-дождевые. Подробнее классификацию облаков см. в Атласе облаков (PDF).
T - Температура воздуха - температура, измеренная на высоте 2 м над землей.
Td - Температура точки росы - температура, при понижении до которой содержащийся в воздухе водяной пар достигнет насыщения.
f - Относительная влажность воздуха - влажноcть воздуха, измеренная на высоте 2 м над землей.
Te - Эффективная температура - температура, которую ощущает одетый по сезону человек в тени. Характеристика душности погоды. При расчете учитывается влияние влажности воздуха и скорости ветра на теплоощущения человека.
Tes - Эффективная температура на солнце - температура, которую ощущает человек, с поправкой на солнечный нагрев. Характеристика знойности погоды. Зависит от высоты солнца над горизонтом, облачности и скорости ветра. Ночью, в пасмурную погоду, а также при ветре 12 м/с и более поправка равна нулю.
P - Атмосферное давление - приведенное к уровню моря атмосферное давление.
Po - Атмосферное давление - измеренное на уровне метеостанции атмосферное давление.
Tmin - Минимальная температура - минимум температуры воздуха на высоте 2 м над землей.
Tmax - Максимальная температура - максимум температуры воздуха на высоте 2 м над землей.
R - Количество осадков - Количество выпавших осадков за период времени, мм. При наведении курсора мыши на число - период времени, за который выпало указанное количество осадков.
R24 - Количество осадков - Количество выпавших осадков за 24 часа, мм.
S - Снежный покров - Высота снежного покрова, см. При наведении курсора мыши на число - состояние снежного покрова и степень покрытия местности в баллах.